Simultaneous Nadir Overpasses (SNOs) Predictions

Prediction of SNOs between NOAA-19 and TERRA Satellite Orbit:

Table of predicted SNOs for the next 14.0 days since TLE Epoch: 7/5/2015
Index Date (NOAA-19) Time (NOAA-19) Lat,Lon (NOAA-19) SZA (NOAA-19 ) Date (TERRA) Time (TERRA) Lat,Lon (TERRA) SZA (TERRA ) Distance(km) Time Diff (sec)
1 07/06/2015 18:35:28 -72.17, 85.10 130.56 07/06/2015 18:36:16 -72.19, 85.11 130.54 1.94 48
2 07/06/2015 19:26:32 72.07,-107.47 49.35 07/06/2015 19:25:44 72.05,-107.49 49.32 2.59 48
3 07/09/2015 00:09:53 72.15,-178.41 49.66 07/09/2015 00:10:01 72.14,-178.42 49.65 0.86 8
4 07/09/2015 01:00:45 -71.89, -10.63 130.59 07/09/2015 00:59:32 -71.97, -11.09 130.53 17.99 73
5 07/11/2015 04:53:14 72.23, 110.64 50.01 07/11/2015 04:54:18 72.22, 110.65 50.00 0.95 64
6 07/11/2015 05:44:09 -72.09, -81.83 130.12 07/11/2015 05:43:48 -72.10, -81.92 130.11 3.55 21
7 07/13/2015 10:27:31 -72.20,-152.84 129.72 07/13/2015 10:28:05 -72.18,-152.86 129.73 2.16 34
8 07/13/2015 11:18:33 72.08, 14.62 50.18 07/13/2015 11:17:32 72.08, 14.61 50.17 0.41 61
9 07/15/2015 15:11:05 -72.91, 134.86 128.68 07/15/2015 15:12:12 -72.78, 137.18 128.78 77.39 67
10 07/15/2015 16:01:54 72.18, -56.37 50.61 07/15/2015 16:01:49 72.15, -56.35 50.58 3.55 5
11 07/15/2015 16:52:37 -71.38, 112.43 130.16 07/15/2015 16:51:30 -71.45, 110.09 130.14 83.39 67
12 07/17/2015 20:45:14 72.24,-127.27 51.02 07/17/2015 20:46:05 72.26,-127.22 51.05 3.39 51
13 07/17/2015 21:36:11 -72.16, 40.14 129.05 07/17/2015 21:35:34 -72.16, 40.22 129.05 2.91 37




NCC Satellite Simultaneous Nadir Overpasses (SNOs) Prediction Service
